Date,TemperatureHighF,TemperatureAvgF,TemperatureLowF,DewpointHighF,DewpointAvgF,DewpointLowF,HumidityHigh,HumidityAvg,HumidityLow,PressureMaxIn,PressureMinIn,WindSpeedMaxMPH,WindSpeedAvgMPH,GustSpeedMaxMPH,PrecipitationSumIn
2013-1-1,32.4,32.4,32.4,17.7,17.7,17.7,55,55,55,29.83,29.83,0,0,1,0.00
2013-1-2,32.4,25.9,17.2,17.7,13.8,9.5,73,61,55,29.93,29.83,2,0,2,0.00
2013-1-3,23.0,23.0,23.0,11.9,11.9,11.9,62,62,62,29.91,29.91,1,1,1,0.00
2013-1-4,23.0,23.0,23.0,11.9,11.9,11.9,62,62,62,29.91,29.91,1,1,1,0.00
2013-1-5,23.0,23.0,23.0,11.9,11.9,11.9,62,62,62,29.91,29.91,1,1,1,0.00
2013-1-6,23.0,23.0,23.0,11.9,11.9,11.9,62,62,62,29.91,29.91,1,1,1,0.00
2013-1-7,23.0,23.0,23.0,11.9,11.9,11.9,62,62,62,29.91,29.91,1,1,1,0.00
2013-1-8,23.0,23.0,23.0,11.9,11.9,11.9,62,62,62,29.91,29.91,1,1,1,0.00
2013-1-9,23.0,23.0,23.0,11.9,11.9,11.9,62,62,62,29.91,29.91,1,1,1,0.00
2013-1-10,23.0,23.0,23.0,11.9,11.9,11.9,62,62,62,29.91,29.91,1,1,1,0.00
2013-1-15,37.2,29.4,27.1,19.9,16.8,9.3,70,60,31,30.14,29.85,6,1,6,0.00
2013-1-16,37.8,32.4,29.1,21.5,17.5,13.3,68,55,43,29.85,29.62,2,0,2,0.00
2013-1-17,35.4,32.9,25.2,26.4,21.2,10.4,71,62,50,29.99,29.74,10,1,10,0.00
2013-1-18,40.6,28.3,21.0,12.7,6.3,-2.9,58,40,25,30.21,29.85,17,3,17,0.00
2013-1-19,56.7,43.5,34.3,22.6,16.5,10.3,43,34,25,29.85,29.46,3,0,3,0.00
2013-1-20,48.2,29.7,21.0,28.5,10.2,-0.8,53,44,32,29.89,29.43,14,5,14,0.04
2013-1-21,22.1,20.9,18.9,4.2,3.1,-4.2,48,46,34,29.86,29.70,11,7,11,0.00
2013-1-22,21.0,15.5,0.0,4.1,-0.5,-9.9,48,45,41,29.98,29.70,11,6,11,0.00
2013-1-23,8.1,8.1,8.1,-8.5,-8.5,-8.5,46,46,46,29.97,29.97,4,4,8,0.00
2013-3-1,29.3,26.8,24.6,23.3,19.9,15.6,87,75,63,29.72,29.65,0,0,0,1.83
2013-3-2,27.3,25.3,22.5,20.9,17.8,14.9,80,73,65,29.70,29.66,0,0,2,0.00
2013-3-3,26.8,24.1,22.1,18.2,15.1,9.7,77,68,55,29.72,29.66,2,0,2,0.00
2013-3-4,37.4,26.4,21.6,16.7,13.1,9.5,75,58,34,29.81,29.72,3,0,3,0.01
2013-3-5,48.4,32.0,20.7,20.3,14.7,4.9,78,53,23,29.80,29.39,6,1,6,0.00
2013-3-6,39.2,37.1,32.7,24.1,22.4,18.6,66,56,52,29.68,29.39,4,0,4,0.00
2013-3-7,38.8,38.8,38.8,23.7,23.7,23.7,55,55,55,29.68,29.68,0,0,1,0.00
2013-3-8,38.8,38.8,38.8,23.7,23.7,23.7,55,55,55,29.68,29.68,0,0,1,0.00
2013-3-9,38.8,38.8,38.8,23.7,23.7,23.7,55,55,55,29.68,29.68,0,0,1,0.00
2013-3-10,38.8,38.8,38.8,23.7,23.7,23.7,55,55,55,29.68,29.68,0,0,1,0.00
2013-3-11,38.8,38.8,38.8,23.7,23.7,23.7,55,55,55,29.68,29.68,0,0,1,0.00
2013-3-12,38.8,38.8,38.8,23.7,23.7,23.7,55,55,55,29.68,29.68,0,0,1,0.00
2013-3-13,38.8,38.8,38.8,23.7,23.7,23.7,55,55,55,29.68,29.68,0,0,1,0.00
2013-3-14,38.8,38.8,38.8,23.7,23.7,23.7,55,55,55,29.68,29.68,0,0,1,0.00
2013-3-15,45.7,36.9,32.4,33.5,27.5,18.6,99,70,53,29.75,29.55,6,1,6,0.81
2013-3-16,35.4,32.3,29.3,34.7,30.9,23.9,99,94,80,29.72,29.38,2,0,2,0.24
2013-3-17,34.7,30.4,26.4,27.2,19.7,13.2,89,66,47,29.92,29.71,2,0,2,0.02
2013-3-18,35.2,32.8,26.2,33.7,26.5,11.9,94,79,54,29.87,29.48,2,1,2,0.01
2013-3-19,35.2,35.2,35.2,32.6,32.6,32.6,90,90,90,29.48,29.48,2,2,2,0.01
2013-3-20,35.2,35.2,35.2,32.6,32.6,32.6,90,90,90,29.48,29.48,2,2,2,0.01
2013-3-21,35.2,35.2,35.2,32.6,32.6,32.6,90,90,90,29.48,29.48,2,2,2,0.01
2013-3-22,35.2,29.0,25.3,32.6,21.6,16.7,94,74,58,29.68,29.48,12,5,12,0.07
2013-3-23,29.5,29.5,29.5,20.2,20.2,20.2,68,68,68,29.68,29.68,7,7,7,0.07
2013-3-24,29.5,29.5,29.5,20.2,20.2,20.2,68,68,68,29.68,29.68,7,7,7,0.07
2013-3-25,29.5,29.5,29.5,20.2,20.2,20.2,68,68,68,29.68,29.68,7,7,7,0.07
2013-3-26,29.5,29.5,29.5,20.2,20.2,20.2,68,68,68,29.68,29.68,7,7,7,0.07
2013-3-27,29.5,29.5,29.5,20.2,20.2,20.2,68,68,68,29.68,29.68,7,7,7,0.07
2013-3-28,29.5,29.5,29.5,20.2,20.2,20.2,68,68,68,29.68,29.68,7,7,7,0.07
2013-3-29,29.5,29.5,29.5,20.2,20.2,20.2,68,68,68,29.68,29.68,7,7,7,0.07
2013-3-30,29.5,29.5,29.5,20.2,20.2,20.2,68,68,68,29.68,29.68,7,7,7,0.07
2013-3-31,29.5,29.5,29.5,20.2,20.2,20.2,68,68,68,29.68,29.68,7,7,7,0.07
2013-4-1,29.5,29.5,29.5,20.2,20.2,20.2,68,68,68,29.68,29.68,7,7,7,0.07
2013-4-2,29.5,29.5,29.5,20.2,20.2,20.2,68,68,68,29.68,29.68,7,7,7,0.07
2013-4-3,29.5,29.5,29.5,20.2,20.2,20.2,68,68,68,29.68,29.68,7,7,7,0.07
2013-4-4,29.5,29.5,29.5,20.2,20.2,20.2,68,68,68,29.68,29.68,7,7,7,0.07
2013-4-5,29.5,29.5,29.5,20.2,20.2,20.2,68,68,68,29.68,29.68,7,7,7,0.07
2013-4-6,29.5,29.5,29.5,20.2,20.2,20.2,68,68,68,29.68,29.68,7,7,7,0.07
2013-4-7,29.5,29.5,29.5,20.2,20.2,20.2,68,68,68,29.68,29.68,7,7,7,0.07
2013-4-8,29.5,29.5,29.5,20.2,20.2,20.2,68,68,68,29.68,29.68,7,7,7,0.07
2013-4-9,29.5,29.5,29.5,20.2,20.2,20.2,68,68,68,29.68,29.68,7,7,7,0.07
2013-4-10,29.5,29.5,29.5,20.2,20.2,20.2,68,68,68,29.68,29.68,7,7,7,0.07
2013-4-11,55.9,45.5,29.5,52.7,43.3,20.2,99,92,68,29.68,29.30,7,1,7,1.50
2013-4-12,56.3,46.3,42.4,56.0,45.7,42.2,99,98,97,29.36,29.17,3,1,3,0.24
2013-4-13,44.4,41.2,37.6,42.6,34.6,28.6,98,78,61,29.73,29.33,14,2,14,0.04
2013-4-14,60.1,45.1,31.6,35.0,31.7,26.2,86,62,35,29.84,29.67,2,0,2,0.00
2013-4-15,69.4,62.3,50.0,44.5,40.6,34.1,59,47,41,29.75,29.65,1,0,1,0.00
2013-4-16,69.4,69.4,69.4,43.3,43.3,43.3,41,41,41,29.73,29.73,0,0,0,0.00
2013-4-17,69.4,69.4,69.4,43.3,43.3,43.3,41,41,41,29.73,29.73,0,0,0,0.00
2013-4-18,69.4,69.4,69.4,43.3,43.3,43.3,41,41,41,29.73,29.73,0,0,0,0.00
2013-4-19,69.4,69.4,69.4,43.3,43.3,43.3,41,41,41,29.73,29.73,0,0,0,0.00
2013-4-20,69.4,69.4,69.4,43.3,43.3,43.3,41,41,41,29.73,29.73,0,0,0,0.00
2013-4-21,69.4,69.4,69.4,43.3,43.3,43.3,41,41,41,29.73,29.73,0,0,0,0.00
2013-4-22,69.4,69.4,69.4,43.3,43.3,43.3,41,41,41,29.73,29.73,0,0,0,0.00
2013-4-23,80.2,68.1,46.2,43.7,35.0,22.8,58,34,16,29.88,29.60,4,0,4,0.41
2013-4-24,62.2,47.0,36.5,56.1,43.5,35.6,99,90,45,29.86,29.44,14,3,14,0.66
2013-4-25,57.4,42.3,31.3,44.7,33.4,20.7,97,75,33,30.06,29.85,2,0,2,0.12
2013-4-26,54.3,46.3,32.4,39.2,28.8,16.2,97,58,27,30.18,30.05,1,0,1,0.00
2013-4-27,54.3,54.3,54.3,26.3,26.3,26.3,36,36,36,30.16,30.16,0,0,0,0.00
2013-4-28,54.3,54.3,54.3,26.3,26.3,26.3,36,36,36,30.16,30.16,0,0,0,0.00
2013-4-29,54.3,54.3,54.3,26.3,26.3,26.3,36,36,36,30.16,30.16,0,0,0,0.00
2013-4-30,54.3,54.3,54.3,26.3,26.3,26.3,36,36,36,30.16,30.16,0,0,0,0.00
2013-5-1,54.3,54.3,54.3,26.3,26.3,26.3,36,36,36,30.16,30.16,0,0,0,0.00
2013-5-2,54.3,54.3,54.3,26.3,26.3,26.3,36,36,36,30.16,30.16,0,0,0,0.00
2013-5-3,54.3,54.3,54.3,26.3,26.3,26.3,36,36,36,30.16,30.16,0,0,0,0.00
2013-5-4,54.3,54.3,54.3,26.3,26.3,26.3,36,36,36,30.16,30.16,0,0,0,0.00
2013-5-5,54.3,54.3,54.3,26.3,26.3,26.3,36,36,36,30.16,30.16,0,0,0,0.00
2013-5-6,54.3,54.3,54.3,26.3,26.3,26.3,36,36,36,30.16,30.16,0,0,0,0.00
2013-5-7,54.3,54.3,54.3,26.3,26.3,26.3,36,36,36,30.16,30.16,0,0,0,0.00
2013-5-8,78.1,60.1,54.3,57.9,37.3,26.3,86,46,36,30.16,29.65,4,0,4,0.24
2013-5-9,84.0,68.8,55.8,58.9,40.2,15.3,98,52,12,29.70,29.64,1,0,1,0.00
2013-5-10,70.7,70.7,70.7,27.3,27.3,27.3,23,23,23,29.67,29.67,0,0,0,0.00
2013-5-11,70.7,70.7,70.7,27.3,27.3,27.3,23,23,23,29.67,29.67,0,0,0,0.00
2013-5-12,70.7,70.7,70.7,27.3,27.3,27.3,23,23,23,29.67,29.67,0,0,0,0.00
2013-5-13,70.7,70.7,70.7,27.3,27.3,27.3,23,23,23,29.67,29.67,0,0,0,0.00
2014-1-1,79.5,60.8,43.3,41.5,31.5,21.9,62,37,14,30.08,29.81,0,0,0,0.00
2014-1-2,57.9,56.0,54.0,56.9,50.2,35.0,99,83,47,29.80,29.60,4,1,4,0.13